Reflectivity
-20 -20 -20 -20 -20 -20 -20 -20 -20 -20 -20 -20 -20 -20 -20 -20 -20 -20 -20 -20 -20 -20 -20 -20 -20 -20 -20 -20 -20 -20 -20 -20
-20 -20 -20 -20 -20 -20 -20 -20 -20 -20 -20 -20 -20 -20 -20 -20 -20 -20 -20 -20 -20 -20 -20 -20 -20 -20 -20 -20 -20 -20 -20 -20
-20 -20 -20 -20 -20 -20 -20 -20 -20 -20 -20 -20 -20 -20 -20 -20 -20 -20 -20 -20 -20 -20 -20 -20 -20 -20 -20 -20 -20 -20 -20 -20
-20 -20 -20 -20 -20 -20 -20 -20 -20 -20 -20 -20 -20 -20 -20 -20 -20 -20 -20 -20 -20 -20 -20 -20 -20 -20 -20 -20 -20 -20 -20 -20
-4 -8 -20 -6 -20 -20 -20 -20 -20 -20 -20 -20 -20 -20 -20 -20 -20 -20 -20 -20 -20 -20 -20 -20 -20 -20 -20 -20 -20 -20 -20 -20
-20 -20 -20 -2 -20 -20 -20 -20 -20 -20 -20 -20 -20 -20 -20 -20 -20 -20 -20 -20 -20 -20 -20 -20 -20 -20 -20 -20 -20 -20 -20 -20
-20 -20 -20 -20 -20 -9 -20 -20 -20 -20 -20 -20 -20 -20 -20 -20 -20 -20 -20 -20 -20 -20 -20 -20 -20 -20 -20 -20 -20 -20 -20 -20
-20 8 -0 -8 -14 -19 -20 -20 -20 -20 -20 -20 -20 -20 -20 -20 -20 -20 -20 -20 -20 -20 -20 -20 -20 -20 -20 -20 -20 -20 -20 -20
-20 -7 11 17 10 1 -13 -19 -20 -20 -20 -20 -20 -20 -20 -20 -20 -20 -20 -20 -20 -20 -20 -20 -20 -20 -20 -20 -20 -20 -20 -20
-20 -20 7 14 10 3 -1 -1 -20 -20 -20 -20 -20 -20 -20 -20 -20 -20 -20 -20 -20 -20 -20 -20 -20 -20 -20 -20 -20 -20 -20 -20
-20 -20 -17 15 20 11 4 5 -20 -20 -20 -20 -20 -20 -20 -20 -20 -20 -20 -20 -20 -20 -20 -20 -20 -20 -20 -20 -20 -20 -20 -20
-20 -20 -20 -8 19 17 12 24 -11 -4 -20 -20 -20 -20 -20 -20 -20 -20 -20 -20 -20 -20 -20 -20 -20 -20 -20 -20 -20 -20 -20 -20
-20 -20 -20 -6 18 26 19 -2 -19 16 6 -20 -20 -20 -20 -20 -20 -20 -20 -20 -20 -20 -20 -20 -20 -20 -20 -20 -20 -20 -20 -20
-20 -20 -20 -20 -1 1 13 23 0 -8 4 0 -2 -20 -14 -20 -20 -20 -20 -20 -20 -20 -20 -20 -20 -20 -20 -20 -20 -20 -20 -20
-20 -20 -20 -20 -20 -4 7 -3 24 24 19 33 22 11 -12 -19 -20 -20 -20 -20 -20 -20 -20 -20 -20 -20 -20 -20 -20 -20 -20 -20
-20 -20 -20 -20 -20 -20 -20 14 17 24 -14 16 27 12 4 -20 -20 -20 -20 -20 -20 -20 -20 -20 -20 -20 -20 -20 -20 -20 -20 -20
-20 -20 -20 -20 -20 -20 -20 -20 -20 2 28 21 24 32 0 -20 -20 -20 -20 -20 -20 -20 -20 -20 -20 -20 -20 -20 -20 -20 -20 -20
-20 -20 -20 -20 -20 -20 -20 -20 -20 -7 1 17 22 25 37 8 28 -12 -15 -20 -20 -20 -20 -20 -20 -20 -20 -20 -20 -20 -20 -20
-20 -20 -20 -20 -20 -20 -20 -20 -20 -17 -20 -13 13 26 29 40 26 24 -11 -0 -1 -20 -20 -20 -20 -20 -20 -20 -20 -20 -20 -20
-20 -20 -20 -20 -20 -20 -20 -20 -20 -20 -20 -20 -2 0 26 31 35 29 26 25 26 27 -20 -20 -20 -20 -20 -20 -20 -20 -20 -20
Wind_Speed
10 11 10 7 9 12 12 12 11 10 10 11 11 13 12 13 13 12 12 11 11 11 13 13 12 12 11 10 8 5 10 8
8 8 9 10 10 7 10 10 10 10 9 9 10 10 11 11 11 11 11 11 11 12 13 12 12 12 11 10 9 6 8 9
6 7 7 8 9 9 9 9 9 10 9 8 9 9 11 12 8 9 9 10 11 11 11 10 10 9 10 10 9 5 7 5
6 7 7 6 6 9 9 9 8 8 10 10 6 8 8 8 9 8 8 8 9 10 9 9 8 7 6 8 4 6 5 5
7 7 7 8 7 6 5 5 6 6 9 10 7 5 5 5 6 7 7 7 7 8 8 6 7 6 6 5 6 6 4 4
11 10 8 10 6 6 7 6 7 6 7 9 8 5 6 6 5 7 7 7 8 8 6 6 6 6 6 6 6 5 4 4
10 12 10 9 10 7 8 9 8 9 8 10 8 8 7 7 6 6 7 7 8 7 7 6 6 6 6 6 7 6 6 4
17 11 11 12 11 12 10 9 10 9 9 10 12 9 8 8 7 7 7 7 7 7 8 7 6 5 6 7 7 7 7 6
19 15 14 12 13 11 11 11 10 10 9 13 15 13 11 11 8 8 8 6 6 5 5 5 6 5 6 6 7 8 8 8
18 15 12 15 12 8 8 10 11 9 9 9 16 16 14 12 9 9 9 7 6 6 6 6 6 6 6 6 7 8 9 9
19 18 14 15 10 9 8 11 11 9 8 9 14 16 15 12 10 10 11 9 8 7 6 6 7 7 6 5 6 7 9 8
18 16 16 14 11 7 6 7 8 8 8 9 13 13 15 13 11 11 11 10 10 9 9 7 5 7 6 6 5 6 7 8
20 19 18 12 10 8 6 9 8 7 9 12 15 14 16 15 12 13 12 12 13 13 10 10 8 5 5 4 5 7 9 8
20 19 19 12 9 8 5 6 6 7 7 10 13 14 15 15 14 13 13 11 13 12 13 9 9 9 7 5 6 8 9 10
18 18 19 16 16 9 8 7 4 5 8 9 12 15 16 16 15 13 13 12 12 13 13 15 10 9 13 7 6 8 5 7
18 17 18 16 18 14 16 7 8 4 7 8 10 15 16 15 16 15 14 11 13 12 12 13 11 11 9 12 7 1 6 5
17 18 18 18 17 15 11 12 9 8 9 8 10 10 14 17 16 16 15 12 14 14 13 15 12 11 12 9 13 9 7 6
17 18 19 18 17 17 16 16 14 10 10 8 7 6 7 13 16 14 14 14 15 14 16 16 15 14 12 12 11 13 12 9
17 19 18 19 19 18 17 16 14 13 12 9 10 7 7 10 14 13 13 16 16 15 14 16 16 15 16 13 12 13 11 12
16 19 19 18 18 17 16 16 11 10 11 11 8 8 7 10 11 14 16 16 16 15 12 13 15 15 19 16 12 12 11 11
Wind_Direction
141 147 139 114 123 129 130 132 131 129 129 126 125 127 130 127 127 129 130 125 117 122 127 126 127 125 119 110 99 88 121 121
139 150 155 152 149 123 129 130 131 131 128 125 125 125 127 129 130 135 136 130 123 133 135 135 135 134 129 126 110 113 121 128
159 165 168 158 153 145 127 127 128 132 134 120 138 147 153 154 135 145 144 136 131 138 139 135 131 131 134 129 150 133 135 135
191 184 184 176 166 160 162 159 163 167 164 165 165 159 162 162 151 141 143 139 133 135 130 124 158 146 144 142 148 142 144 149
203 202 198 201 181 179 176 172 169 172 175 169 169 168 164 172 159 160 160 155 156 156 151 169 165 158 161 166 150 159 150 154
210 212 200 207 197 205 192 183 177 182 187 184 174 178 189 190 185 172 174 175 168 175 173 163 163 171 172 169 169 164 166 163
236 215 204 205 206 208 205 203 192 189 187 191 192 186 190 199 197 196 190 180 177 178 178 176 174 179 189 185 185 179 176 172
335 238 217 213 195 198 208 206 199 198 190 196 197 198 190 197 206 208 205 200 189 186 183 183 186 180 186 194 193 192 190 185
345 324 234 210 223 211 197 200 204 205 206 201 199 200 199 192 201 214 209 208 199 193 195 192 189 190 199 195 198 203 199 194
348 351 291 231 220 216 220 209 200 204 211 212 208 202 201 200 202 206 204 202 208 205 200 201 206 203 202 209 209 205 207 203
357 357 1 350 250 223 215 223 214 200 199 211 219 212 203 207 211 211 199 203 205 208 208 221 208 209 214 215 203 204 204 206
356 359 358 353 342 225 222 218 227 204 202 209 217 218 212 210 214 216 209 205 208 206 212 205 228 225 220 217 215 209 207 212
357 355 358 356 356 335 248 222 211 219 209 210 207 213 212 211 217 213 209 216 213 207 209 212 209 212 211 228 229 226 219 217
355 353 354 355 348 322 278 301 227 216 216 209 214 207 209 212 213 214 214 215 218 216 209 206 217 197 212 231 227 219 225 220
356 350 349 353 350 334 326 313 238 203 211 212 212 211 208 210 212 215 211 214 215 214 214 215 215 202 208 214 212 235 210 199
356 353 353 352 353 352 351 329 328 307 211 218 220 213 214 210 212 209 212 213 216 213 213 219 222 220 208 225 236 264 221 214
355 357 358 355 352 354 349 345 334 320 325 246 219 211 214 216 211 212 213 210 216 211 206 206 212 224 220 207 225 224 235 255
356 357 358 357 355 352 352 350 343 341 339 330 303 213 213 223 225 221 217 219 219 214 210 206 210 215 226 228 221 217 222 224
353 354 352 357 354 353 350 349 345 341 339 329 325 312 223 223 219 217 223 223 225 221 214 215 209 213 213 220 224 229 228 221
353 352 347 349 352 348 349 349 345 339 336 328 334 341 319 286 224 222 226 227 225 225 225 220 221 218 217 217 221 228 226 228